Regional Weather Roundup
Issued by NWS Kansas City/Pleasant Hill, MO

Home | Current Version | Previous Version | Graphics & Text | Print | Product List | Glossary Off
Versions: 1 2 3 4 5 6 7 8 9 10 11 12 13 14 15 16 17 18 19 20 21 22 23 24 25 26 27 28 29 30 31 32 33 34 35 36 37 38 39 40 41 42 43 44 45 46 47 48 49 50

790
ASUS43 KEAX 211310
RWREAX

WEATHER ROUNDUP FOR EASTERN KANSAS AND NORTHWEST MISSOURI
NATIONAL WEATHER SERVICE KANSAS CITY/PLEASANT HILL MO
700 AM CST TUE FEB 21 2017

KSZ040-057-103>105-MOZ028-029-037-043-211400-
...KANSAS CITY METROPOLITAN AREA...

CITY           SKY/WX    TMP DP  RH WIND       PRES   REMARKS
K.C. INTL      CLOUDY    44  41  89 N9        29.96R
K.C. DOWNTOWN  PTCLDY    50  44  80 N5        29.95S
LEES SUMMIT    CLOUDY    49  46  90 NE5       29.96R
OLATHE - IXD   PTCLDY    44  42  93 N6        29.96S
OLATHE - OJC   PTCLDY    49  46  90 NE8       29.95S
LAWRENCE       CLEAR     39  39 100 W5        29.98R

$$

MOZ001>008-011>017-020>025-030>033-038>040-044>046-053-054-211400-
...NORTHERN AND CENTRAL MISSOURI...

CITY           SKY/WX    TMP DP  RH WIND       PRES   REMARKS
ST. JOSEPH     CLEAR     37  36  96 NE5       29.98R WCI  33
WARRENSBURG    CLOUDY    50  46  87 N7        29.95S
WHITEMAN AFB   MOCLDY    51  51 100 N8        29.92S
CLINTON        CLOUDY    50  50 100 CALM      29.94S
SEDALIA        PTCLDY    53  52  96 N7        29.94R
WARSAW         NOT AVBL
CHILLICOTHE      N/A     48  45  89 CALM      29.96S
KIRKSVILLE     CLOUDY    47  43  86 NE7       29.95S

$$

MOZ041-047>049-056>058-063>065-088>090-097-211400-
...EASTERN AND SOUTHERN MISSOURI...

CITY           SKY/WX    TMP DP  RH WIND       PRES   REMARKS
ST. LOUIS INTL LGT RAIN  61  59  93 NE6       29.92S FOG
SPIRIT OF STL  LGT RAIN  57  57 100 CALM      29.92R VSB 1/4
COLUMBIA       FOG       54  54 100 N6        29.92R VSB 1/2
JEFFERSON CITY MOCLDY    56  56 100 CALM      29.91S FOG
ROLLA          LGT RAIN  57  57 100 E8        29.88F
OSAGE BEACH    CLOUDY    56  55  97 N5        29.92S
SPRINGFIELD    PTCLDY    54  53  97 N10       29.89F
BRANSON        CLOUDY    55  55 100 NW8       29.95R
JOPLIN         FOG       47  47 100 VRB5      29.93R VSB 1/4
WEST PLAINS    LGT RAIN  57  55  93 NE8       29.87F

$$

IAZ060-094-KSZ022-034>040-054-083-096-NEZ052-066-093-211400-
...KANSAS...SOUTHEAST NEBRASKA AND IOWA...

CITY           SKY/WX    TMP DP  RH WIND       PRES   REMARKS
TOPEKA         CLEAR     43  38  82 CALM      29.98R
MANHATTAN      CLEAR     30  29  96 SW5       30.00S FOG     WCI  25
EMPORIA        CLEAR     40  39  97 NW6       29.98R
CHANUTE        CLEAR     45  43  93 N5        29.96R
WICHITA        PTCLDY    39  36  89 NW9       30.01R WCI  33
OMAHA          FOG       34  30  85 SE5       30.00R VSB 1   WCI  30
LINCOLN        CLEAR     27  24  89 SE3       30.01R
FALLS CITY     CLEAR     34  34 100 CALM      29.98S FOG
LAMONI         CLOUDY    41  39  93 N6        29.95F
DES MOINES     PTCLDY    37  36  96 CALM      29.96R

$$





USA.gov is the U.S. government's official web portal to all federal, state and local government web resources and services.